Погода в Зунда Толге

Россия / Республика Калмыкия     45°36′38″N   44°15′38″E
темп.,
°C
ветер,
м/с
пор.,
м/с
влажн.,
%
обл.,
%
осадки,
мм/ч
давл.,
гПа
погр.,
м
17 мая, вт
вт1700:00+12з410795 0.0 1016213
03:00+11з411806 0.0 1016240
06:00+12з611735 0.0 1016352
09:00+18з784488 0.0 10151686
12:00+19з8942100 0.0 10142345
15:00+20з8944100 0.0 10132317
18:00+17зсз71067100 0.5 10131017
21:00+13з4108193 0.8 1015227
18 мая, ср
ср1800:00+11зюз49885 0.0 1015198
03:00+10з3587100 0.0 101574
06:00+12юз3581100 0.0 1014169
09:00+18юз4456100 0.0 10131172
12:00+20зюз3445100 0.0 10121734
15:00+22ю244297 0.0 10101736
18:00+19св4555100 0.0 1009141
21:00+14всв51078100 0.0 1012372
19 мая, чт
чт1900:00+13всв588160 0.0 1011208
03:00+13всв2481100 0.0 1011130
06:00+13св128498 0.0 1014163
09:00+15зсз71079100 0.1 1015914
12:00+15зсз81056100 0.0 10161113
15:00+14зсз51064100 0.0 10171250
18:00+13зюз61171100 0.5 1017845
21:00+10з91474100 0.6 1018959
20 мая, пт
пт2000:00+11зсз13187398 0.1 10181177
03:00+10зсз9168291 0.1 1019581
06:00+10зсз8148294 0.1 1021511
09:00+15зсз10135958 0.1 10211310
12:00+18зсз111244100 0.5 10202378
15:00+17сз9125696 1.3 10201598
18:00+15зсз6106756 0.9 1021566
21:00+12з498165 1.3 1022214
21 мая, сб
сб2100:00+13з4883100 0.0 1022251
03:00+12зюз51084100 0.1 1021302
06:00+12зюз5117997 0.0 1021386
09:00+16з71060100 0.0 1020706
12:00+21з794482 0.0 10172142
15:00+20з6949100 0.0 10161900
18:00+20зсз5854100 0.0 1015965
21:00+15зюз497383 0.0 1014159